When you browse on this site, cookies collect data to enhance your experience and personalize the content and advertising you see.
Visit our Privacy Policy to learn more. By continuing to use the site, you agree to this use of cookies and data.
  • In Austria
  • List of Countries
  • For 7 days
  • Water Temperature
  • Weather Map
  • News
  • Weather Widgets
  • user-avatar
    Login

    Hourly Weather La-Plata

    Today, 14 December, Saturday

    Time Temperature Precipitation Wind Pressure Humidity
    00:00 +19°C° 0 mm 5 mps 759 mmHg 51%
    01:00 +19°C° 0 mm 5 mps 759 mmHg 52%
    02:00 +19°C° 0 mm 3 mps 759 mmHg 54%
    03:00 +19°C° 0 mm 4 mps 759 mmHg 53%
    04:00 +19°C° 0 mm 4 mps 759 mmHg 52%
    05:00 +19°C° 0 mm 4 mps 759 mmHg 50%
    06:00 +21°C° 0 mm 4 mps 759 mmHg 44%
    07:00 +23°C° 0 mm 5 mps 760 mmHg 38%
    08:00 +26°C° 0 mm 4 mps 760 mmHg 31%
    09:00 +28°C° 0 mm 4 mps 759 mmHg 27%
    10:00 +30°C° 0 mm 3 mps 759 mmHg 24%
    11:00 +33°C° 0 mm 3 mps 758 mmHg 21%
    12:00 +34°C° 0 mm 3 mps 757 mmHg 19%
    13:00 +35°C° 0 mm 3 mps 757 mmHg 17%
    14:00 +36°C° 0 mm 4 mps 756 mmHg 16%
    15:00 +35°C° 0 mm 4 mps 755 mmHg 17%
    16:00 +34°C° 0 mm 4 mps 755 mmHg 19%
    17:00 +34°C° 0 mm 4 mps 754 mmHg 20%
    18:00 +32°C° 0 mm 5 mps 755 mmHg 27%
    19:00 +29°C° 0 mm 5 mps 755 mmHg 35%
    20:00 +26°C° 0 mm 6 mps 756 mmHg 42%
    21:00 +26°C° 0 mm 6 mps 756 mmHg 47%
    22:00 +25°C° 0 mm 5 mps 756 mmHg 52%
    23:00 +23°C° 0 mm 5 mps 756 mmHg 57%

    Tomorrow, 15 December, Sunday

    Time Temperature Precipitation Wind Pressure Humidity
    00:00 +22°C° 0 mm 4 mps 756 mmHg 66%
    01:00 +21°C° 0 mm 3 mps 756 mmHg 74%
    02:00 +20°C° 0 mm 2 mps 756 mmHg 83%
    03:00 +21°C° 0.1 mm 2 mps 755 mmHg 84%
    04:00 +21°C° 0.1 mm 2 mps 755 mmHg 85%
    05:00 +21°C° 0.1 mm 2 mps 755 mmHg 85%
    06:00 +21°C° 0.4 mm 2 mps 755 mmHg 84%
    07:00 +23°C° 0.4 mm 2 mps 755 mmHg 83%
    08:00 +23°C° 0.4 mm 2 mps 755 mmHg 82%
    09:00 +23°C° 1.1 mm 2 mps 755 mmHg 82%
    10:00 +23°C° 1.1 mm 2 mps 755 mmHg 83%
    11:00 +23°C° 1.1 mm 2 mps 754 mmHg 84%
    12:00 +23°C° 1.7 mm 2 mps 754 mmHg 83%
    13:00 +22°C° 1.7 mm 3 mps 753 mmHg 82%
    14:00 +22°C° 1.7 mm 4 mps 753 mmHg 81%
    15:00 +21°C° 0.4 mm 5 mps 753 mmHg 79%
    16:00 +21°C° 0.4 mm 6 mps 753 mmHg 76%
    17:00 +21°C° 0.4 mm 6 mps 753 mmHg 74%
    18:00 +20°C° 0 mm 6 mps 753 mmHg 77%
    19:00 +19°C° 0 mm 5 mps 753 mmHg 80%
    20:00 +17°C° 0 mm 5 mps 754 mmHg 83%
    21:00 +17°C° 0 mm 4 mps 754 mmHg 84%
    22:00 +17°C° 0 mm 3 mps 754 mmHg 86%
    23:00 +17°C° 0 mm 2 mps 754 mmHg 87%

    Day after tomorrow, 16 December, Monday

    Time Temperature Precipitation Wind Pressure Humidity
    00:00 +16°C° 0 mm 2 mps 754 mmHg 87%
    01:00 +16°C° 0 mm 2 mps 754 mmHg 87%
    02:00 +16°C° 0 mm 1 mps 753 mmHg 87%
    03:00 +16°C° 0 mm 1 mps 754 mmHg 87%
    04:00 +16°C° 0 mm 2 mps 754 mmHg 87%
    05:00 +16°C° 0 mm 2 mps 755 mmHg 87%
    06:00 +18°C° 0 mm 2 mps 755 mmHg 77%
    07:00 +20°C° 0 mm 3 mps 755 mmHg 68%
    08:00 +22°C° 0 mm 3 mps 756 mmHg 58%
    09:00 +25°C° 0 mm 3 mps 756 mmHg 47%
    10:00 +27°C° 0 mm 2 mps 756 mmHg 35%
    11:00 +29°C° 0 mm 2 mps 755 mmHg 24%
    12:00 +29°C° 0 mm 3 mps 755 mmHg 26%
    13:00 +30°C° 0 mm 4 mps 755 mmHg 28%
    14:00 +30°C° 0 mm 4 mps 755 mmHg 29%
    15:00 +28°C° 0 mm 5 mps 755 mmHg 33%
    16:00 +27°C° 0 mm 5 mps 754 mmHg 36%
    17:00 +26°C° 0 mm 6 mps 754 mmHg 40%
    18:00 +23°C° 0 mm 6 mps 755 mmHg 44%
    19:00 +21°C° 0 mm 5 mps 756 mmHg 49%
    20:00 +19°C° 0 mm 5 mps 756 mmHg 53%
    21:00 +19°C° 0 mm 5 mps 756 mmHg 55%
    22:00 +19°C° 0 mm 5 mps 757 mmHg 57%
    23:00 +19°C° 0 mm 4 mps 757 mmHg 59%

    17 December, Tuesday

    Time Temperature Precipitation Wind Pressure Humidity
    00:00 +18°C° 0 mm 3 mps 757 mmHg 59%
    01:00 +18°C° 0 mm 3 mps 757 mmHg 60%
    02:00 +18°C° 0 mm 2 mps 757 mmHg 60%
    03:00 +18°C° 0 mm 2 mps 757 mmHg 60%
    04:00 +18°C° 0 mm 2 mps 757 mmHg 59%
    05:00 +18°C° 0 mm 2 mps 758 mmHg 58%
    06:00 +20°C° 0 mm 2 mps 758 mmHg 50%
    07:00 +22°C° 0 mm 3 mps 758 mmHg 42%
    08:00 +26°C° 0 mm 3 mps 758 mmHg 34%
    09:00 +28°C° 0 mm 3 mps 758 mmHg 31%
    10:00 +29°C° 0 mm 2 mps 758 mmHg 29%
    11:00 +31°C° 0 mm 2 mps 758 mmHg 26%
    12:00 +33°C° 0 mm 3 mps 757 mmHg 24%
    13:00 +33°C° 0 mm 3 mps 757 mmHg 23%
    14:00 +34°C° 0 mm 3 mps 756 mmHg 21%
    15:00 +33°C° 0 mm 4 mps 756 mmHg 22%
    16:00 +33°C° 0 mm 5 mps 756 mmHg 24%
    17:00 +32°C° 0 mm 5 mps 756 mmHg 25%
    18:00 +28°C° 0 mm 5 mps 756 mmHg 36%
    19:00 +26°C° 0 mm 5 mps 756 mmHg 46%
    20:00 +23°C° 0 mm 5 mps 757 mmHg 57%
    21:00 +23°C° 0 mm 5 mps 757 mmHg 55%
    22:00 +23°C° 0 mm 5 mps 757 mmHg 54%
    23:00 +23°C° 0 mm 6 mps 758 mmHg 52%

    18 December, Wednesday

    Time Temperature Precipitation Wind Pressure Humidity
    00:00 +23°C° 0 mm 6 mps 757 mmHg 51%
    01:00 +23°C° 0 mm 7 mps 757 mmHg 51%
    02:00 +23°C° 0 mm 8 mps 757 mmHg 50%
    03:00 +23°C° 0 mm 8 mps 757 mmHg 50%
    04:00 +23°C° 0 mm 8 mps 757 mmHg 50%
    05:00 +23°C° 0 mm 8 mps 758 mmHg 50%
    06:00 +24°C° 0 mm 8 mps 758 mmHg 46%
    07:00 +26°C° 0 mm 8 mps 758 mmHg 42%
    08:00 +28°C° 0 mm 8 mps 759 mmHg 37%
    09:00 +29°C° 0 mm 8 mps 758 mmHg 33%
    10:00 +32°C° 0 mm 8 mps 758 mmHg 29%
    11:00 +33°C° 0 mm 7 mps 758 mmHg 25%
    12:00 +34°C° 0 mm 7 mps 757 mmHg 23%
    13:00 +34°C° 0 mm 8 mps 757 mmHg 22%
    14:00 +35°C° 0 mm 8 mps 756 mmHg 20%
    15:00 +35°C° 0 mm 7 mps 756 mmHg 20%
    16:00 +34°C° 0 mm 7 mps 755 mmHg 21%
    17:00 +34°C° 0 mm 6 mps 755 mmHg 21%
    18:00 +32°C° 0 mm 6 mps 755 mmHg 26%
    19:00 +29°C° 0 mm 6 mps 755 mmHg 31%
    20:00 +28°C° 0 mm 5 mps 755 mmHg 36%
    21:00 +27°C° 0 mm 6 mps 756 mmHg 38%
    22:00 +27°C° 0 mm 6 mps 756 mmHg 39%
    23:00 +26°C° 0 mm 6 mps 756 mmHg 41%

    19 December, Thursday

    Time Temperature Precipitation Wind Pressure Humidity
    00:00 +26°C° 0 mm 6 mps 756 mmHg 45%
    01:00 +24°C° 0 mm 6 mps 756 mmHg 49%
    02:00 +23°C° 0 mm 5 mps 756 mmHg 53%
    03:00 +23°C° 0 mm 5 mps 756 mmHg 55%
    04:00 +22°C° 0 mm 5 mps 756 mmHg 57%
    05:00 +22°C° 0 mm 5 mps 756 mmHg 60%
    06:00 +23°C° 0 mm 5 mps 756 mmHg 54%
    07:00 +25°C° 0 mm 5 mps 756 mmHg 49%
    08:00 +27°C° 0 mm 5 mps 756 mmHg 43%
    09:00 +29°C° 0 mm 5 mps 756 mmHg 38%
    10:00 +32°C° 0 mm 4 mps 755 mmHg 33%
    11:00 +34°C° 0 mm 4 mps 755 mmHg 28%
    12:00 +35°C° 0 mm 4 mps 754 mmHg 25%
    13:00 +36°C° 0 mm 4 mps 753 mmHg 22%
    14:00 +37°C° 0 mm 3 mps 753 mmHg 20%
    15:00 +37°C° 0 mm 4 mps 752 mmHg 20%
    16:00 +36°C° 0 mm 4 mps 752 mmHg 21%
    17:00 +36°C° 0 mm 4 mps 752 mmHg 22%
    18:00 +33°C° 0 mm 5 mps 752 mmHg 31%
    19:00 +30°C° 0 mm 5 mps 752 mmHg 40%
    20:00 +27°C° 0 mm 6 mps 752 mmHg 49%
    21:00 +27°C° 0 mm 5 mps 753 mmHg 52%
    22:00 +26°C° 0 mm 4 mps 753 mmHg 55%
    23:00 +26°C° 0 mm 3 mps 753 mmHg 58%
    Show more